Location: Baia Mare
(47.6567°N, 23.5850°E)
Time: 17:52:10

ISS - Pass Details

Date: 20 March 2018
Orbit: 403 x 406 km, 51.6° (Epoch: 21 March)

Event Time Altitude Azimuth Distance (km) Brightness Sun altitude
Exits shadow 04:26:33 14° 151° (SSE) 1,247 -1.3 -20.9°
Drops below altitude 10° 04:27:06 10° 147° (SSE) 1,456 -0.9 -20.8°
Sets 04:29:16 0° 138° (SE) 2,312 0.2 -20.5°
